Regional Weather Roundup
Issued by NWS

Home | Current Version | Previous Version | Graphics & Text | Print | Product List | Glossary On
Versions: 1 2 3 4 5 6 7 8 9 10 11 12 13 14 15 16 17 18 19 20 21 22 23 24 25 26 27 28 29 30 31 32 33 34 35 36 37 38 39 40 41 42 43 44 45 46 47 48 49 50
703
ASUS43 KLMK 231902
RWRKY
KENTUCKY REGIONAL WEATHER ROUNDUP
NATIONAL WEATHER SERVICE LOUISVILLE KY
300 PM EDT TUE MAY 23 2017

NOTE "FAIR" INDICATES FEW OR NO CLOUDS BELOW 12,000 FEET
WITH NO SIGNIFICANT WEATHER AND/OR OBSTRUCTIONS TO VISIBILITY.

KYZ001>023-026-027-061>063-070>075-232000-
WESTERN AND SOUTH CENTRAL KENTUCKY

CITY           SKY/WX    TMP DP  RH WIND       PRES   REMARKS
PADUCAH        CLOUDY    74  51  44 W7        29.71F
HENDERSON      MOSUNNY   75  45  34 W6        29.71F
OWENSBORO      CLOUDY    76  45  33 VRB5      29.71F
HOPKINSVILLE   PTSUNNY   76  56  50 W7        29.70F
BOWLING GREEN  CLOUDY    76  57  51 CALM      29.70F
GLASGOW        NOT AVBL
$$

KYZ024-025-028>034-038-045-046-053-232000-
NORTH CENTRAL KENTUCKY

CITY           SKY/WX    TMP DP  RH WIND       PRES   REMARKS
LOUISVILLE/SDF CLOUDY    75  54  47 SE6       29.70F
LOUISVILLE/LOU MOSUNNY   76  55  48 SW5       29.71F
FORT KNOX      PTSUNNY   73  55  51 CALM      29.69F
$$

KYZ035>037-039>044-047>052-055>060-089>105-232000-
NORTHEAST KENTUCKY

CITY           SKY/WX    TMP DP  RH WIND       PRES   REMARKS
LEXINGTON      CLOUDY    74  57  55 VRB5      29.72F
COVINGTON      PTSUNNY   74  49  41 E9        29.72F
FRANKFORT      CLOUDY    75  58  55 VRB6      29.71F
$$

KYZ054-064>069-076>088-106>120-232000-
SOUTHEAST KENTUCKY

CITY           SKY/WX    TMP DP  RH WIND       PRES   REMARKS
JACKSON        LGT RAIN  64  61  90 CALM      29.75F
LONDON         CLOUDY    68  60  75 NW3       29.73F
SOMERSET       CLOUDY    68  55  64 CALM      29.73F
MIDDLESBORO    LGT RAIN  66  64  92 CALM      29.73F
MONTICELLO     CLOUDY    71  60  68 E8        29.74F
$$





USA.gov is the U.S. government's official web portal to all federal, state and local government web resources and services.